Meteo Giornale » Osservazioni meteo Messico » Mexico City-Licenci

ore: 09:48 - Osservazioni Meteo Mexico City-Licenci
Lat. 19° 26' N Lon. 99° 6' W Alt. 2238 metri s.l.m.

sereno America/Mexico_City

16 °C

Sereno

Temp. 24 Ore

12 °C

25 °C

Est/Nord-Est

7.4 Km/h

Dew point 9 °C

Umidità 63 %

Visibilità  13 Km

Il sole sorge alle ore 07:17

Il sole tramonta alle ore 20:01

Data e Ora Cielo e Fenomeni T °C DP °C Um. % Pres. hPa Vis. km Vento km/h
Oggi h: 09:48 sereno Sereno 16 9 63 1028 13 E/NE 7.4
Oggi h: 09:23 sereno Sereno 15 9 67 1028 13 E 7.4
Oggi h: 08:40 poco_nuvoloso Poco Nuvoloso 13 9 76 1028 10 E/SE 11.1
Oggi h: 07:42 nuvoloso Nuvoloso 12 8 76 1028 10 E 7.4
Oggi h: 06:50 nuvoloso Nuvoloso 13 9 76 1027 13 N 3.7
Oggi h: 05:46 nuvoloso Nuvoloso 14 8 67 1027 10 O/NO 7.4
Oggi h: 04:46 molto_nuvoloso Molto Nuvoloso 14 9 71 1026 19 O/NO 13
Oggi h: 03:48 nuvoloso Nuvoloso 14 9 71 1026 19 O/NO 13
Oggi h: 02:42 nuvoloso Nuvoloso 15 9 67 1027 13 O 11.1
Oggi h: 01:42 nuvoloso Nuvoloso 15 9 67 1027 14 O/NO 13
Oggi h: 00:46 molto_nuvoloso Molto Nuvoloso 16 9 63 1028 10 N 9.3
Ieri h: 23:45 nuvoloso Nuvoloso 17 9 59 1028 10 N/NE 11.1
Ieri h: 22:46 nuvoloso Nuvoloso 17 9 59 1027 10 N 14.8
Ieri h: 21:45 nuvoloso Nuvoloso 18 9 55 1026 10 NE 22.2
Ieri h: 21:28 nuvoloso Nuvoloso 18 9 55 1026 10 NE 18.5
Ieri h: 20:49 nuvoloso Nuvoloso 20 9 49 1026 10 N/NE 25.9
Ieri h: 19:47 coperto Coperto 21 9 46 1025 10 NE 31.5
Ieri h: 18:45 coperto Coperto 23 9 40 1024 10 NE 27.8
Ieri h: 17:40 coperto Coperto 23 8 38 1023 10 E 20.3
Ieri h: 16:46 coperto Coperto 24 8 35 1023 10 E/NE 20.3
Ieri h: 15:47 molto_nuvoloso Molto Nuvoloso 25 8 33 1024 10 NE 11.1
Ieri h: 15:37 molto_nuvoloso Molto Nuvoloso 25 8 33 1024 10 NE 14.8
Ieri h: 14:46 molto_nuvoloso Molto Nuvoloso 23 6 33 1025 10 NE 9.3
Ieri h: 13:45 molto_nuvoloso Molto Nuvoloso 23 7 35 1026 10 O 9.3
Ieri h: 13:23 molto_nuvoloso Molto Nuvoloso 22 6 35 1026 10 E/SE 7.4
Ieri h: 12:45 molto_nuvoloso Molto Nuvoloso 20 5 37 1027 10 N 13
Ieri h: 11:45 molto_nuvoloso Molto Nuvoloso 19 5 39 1028 19 NE 9.3